x

Buoy I01 - Eastern Maine Shelf (44034) Wave Buoy

8:04 - Mon 26th Sep 2016 All times are EDT. -4 hours from GMT.

  • Sig Wave height 2.6ft
  • Peak Period 4s
  • Wind
    16mph, 20mph gusts
  • Sea Temp 55°f
  • Ar Temp 55°f
  • Sea Pressure 1018.1mb
  • Buoy I01 - Eastern Maine Shelf
  • Buoy I01 - Eastern Maine Shelf

More Historic Weather Station data

Upgrade to MSW Pro to gain access to the past 30 days of data for over 8000 Wavebouys and Weather Stations around the globe.

Join Pro

Comparision Forecast

View Surf forecast
   
Seg 09/26 8:04 2.5ft 4s 16 20 mph 1018.1mb 55f 55f
7:04 2.5ft 4s 18 20 mph 1018.3mb 55f 55f
6:04 2.5ft 3s 16 20 mph 1018.7mb 55f 55f
5:04 2ft 3s 18 22 mph 1018.5mb 56f 55f
4:04 1.6ft 3s 11 13 mph 1018.8mb 56f 56f
3:04 1.3ft 3s 11 13 mph 1019.5mb 56f 55f
2:04 1ft 3s 11 13 mph 1020mb 56f 54f
1:04 1ft 2s 9 11 mph 1020.8mb 55f 54f
12:04 1.3ft 3s 4 7 mph 1021.3mb 56f 54f
11:04 1.3ft 3s 4 7 mph 1021.4mb 55f 53f
10:04 1.6ft 3s 9
mph
1021.4mb 55f 51f
9:04 1.6ft 2s 9 11 mph 1021.2mb 55f 51f
8:04 2ft 3s 11 13 mph 1021.4mb 55f 51f
7:04 2ft 3s 13 16 mph 1021.1mb 55f 51f
6:04 2ft 3s 16 18 mph 1020.6mb 55f 50f
5:04 2ft 3s 18 20 mph 1020.2mb 55f 51f
4:04 2ft 3s 16 18 mph 1020.2mb 55f 51f
3:04 2ft 3s 18 20 mph 1020.1mb 55f 51f
2:04 2ft 3s 16 18 mph 1020.1mb 55f 52f
1:04 1.6ft 3s 13 18 mph 1020.1mb 55f 52f
12:04 2ft 3s 13 16 mph 1019.9mb 55f 53f
Dom 09/25 11:04 2ft 3s 16 18 mph 1019.7mb 55f 53f
10:04 2ft 3s 18 20 mph 1019.7mb 55f 54f
9:04 2.5ft 3s 18 20 mph 1019.3mb 55f 54f
8:04 2.5ft 3s 18 20 mph 1018.7mb 55f 54f
7:04 2ft 3s 16 18 mph 1017.8mb 55f 55f
6:04 2.5ft 3s 11 13 mph 1017.1mb 55f 54f
5:04 2ft 4s 13 18 mph 1016.3mb 55f 55f
4:04 2.5ft 3s 18 22 mph 1016.1mb 55f 55f
3:04 2.5ft 3s 16 18 mph 1016.1mb 55f 55f
2:04 2.5ft 3s 16 22 mph 1016mb 55f 54f
1:04 2.5ft 4s 18 22 mph 1016.4mb 55f 53f
12:04 2.5ft 3s 16 20 mph 1016.5mb 55f 53f
11:04 2.5ft 3s 18 20 mph 1016.5mb 55f 52f
10:04 2.5ft 3s 18 20 mph 1016.5mb 55f 51f
9:04 2.5ft 4s 16 20 mph 1016.6mb 55f 50f
8:04 2.5ft 3s 18 25 mph 1016.3mb 55f 49f
7:04 2.5ft 3s 18 22 mph 1016.2mb 55f 49f
6:04 2.5ft 3s 18 20 mph 1016.2mb 55f 49f
5:04 2.5ft 3s 20 22 mph 1015.8mb 55f 50f
4:04 2.5ft 4s 16 20 mph 1015.9mb 55f 50f
3:04 2.5ft 4s 16 20 mph 1016.1mb 55f 50f
2:04 2.5ft 4s 18 22 mph 1016.4mb 55f 51f
1:04 2.5ft 4s 22 29 mph 1016.2mb 55f 52f
12:04 2.5ft 4s 20 27 mph 1016.2mb 55f 53f
Sáb 09/24 11:04 2ft 3s 18 22 mph 1015.9mb 55f 55f
10:04 1.3ft 3s 16 18 mph 1015.7mb 55f 56f
9:04 1.3ft 3s 13 18 mph 1015.4mb 55f 56f
8:04 1.3ft 3s 11 13 mph 1015.5mb 55f 57f
7:04 1.6ft 3s 9 13 mph 1015.2mb 55f 57f
6:04 2ft 3s 13 16 mph 1014.9mb 55f 58f
5:04 2ft 3s 16 20 mph 1015mb 55f 58f
4:04 2.5ft 4s 13 18 mph 1015mb 55f 58f
3:04 2.5ft 3s 16 18 mph 1015.4mb 56f 58f
2:04 2.5ft 3s 18 20 mph 1016mb 56f 57f
1:04 1.6ft 3s 13 16 mph 1016.7mb 56f 56f
12:04 2ft 3s 13 16 mph 1017.6mb 56f 55f
11:04 2ft 3s 18 20 mph 1018.1mb 56f 53f
10:04 2.5ft 3s 18 22 mph 1018.1mb 56f 53f
9:04 2.5ft 3s 20 22 mph 1018.1mb 55f 53f
8:04 2.5ft 3s 18 22 mph 1018.1mb 55f 53f
7:04 1.3ft 3s 13 16 mph 1018.6mb 55f 53f
6:04 1.3ft 3s 11 13 mph 1018.2mb 55f 54f
5:04 1.6ft 3s 9 11 mph 1017.4mb 55f 53f
4:04 1.3ft 3s 9 11 mph 1017.4mb 55f 54f
3:04 1.6ft 4s 11 13 mph 1017.8mb 55f 54f
2:04 2ft 4s 11 16 mph 1017.9mb 56f 55f
1:04 2ft 4s 16 20 mph 1017.7mb 56f 55f
12:04 2.5ft 3s 16 18 mph 1017.4mb 56f 55f
Sex 09/23 11:04 2.5ft 3s 16 18 mph 1017.4mb 56f 55f
10:04 2.5ft 3s 16 18 mph 1017.2mb 56f 55f
9:04 2.5ft 3s 16 18 mph 1017.3mb 56f 55f
8:04 2.5ft 3s 16 18 mph 1017.3mb 56f 56f
7:04 2.5ft 3s 20 25 mph 1016.5mb 56f 56f
6:04 2.5ft 5s 18 20 mph 1016.1mb 56f 57f
5:04 3ft 4s 16 20 mph 1015.1mb 56f 57f
4:04 3ft 4s 20 25 mph 1014.9mb 56f 57f
3:04 2.5ft 4s 22 27 mph 1014.1mb 56f 57f
2:04 2ft 5s 13 16 mph 1013.9mb 56f 59f
1:04 2.5ft 4s 7
mph
1013.7mb 57f 59f
12:04 2.5ft 5s 9 11 mph 1014mb 57f 59f
11:04 2.5ft 4s 7
mph
1014mb 56f 59f
10:04 4ft 11s 13 16 mph 1014.7mb 57f 59f
9:04 2.5ft 4s 4 7 mph 1014.8mb 56f 59f
8:04 3ft 4s 13 16 mph 1014.7mb 57f 61f
7:04 2.5ft 4s 18 22 mph 1014.4mb 57f 62f
6:04 2.5ft 4s 18 22 mph 1014.4mb 57f 61f
5:04 2ft 4s 18 20 mph 1014.7mb 57f 61f
4:04 1.3ft 3s 13 16 mph 1015.5mb 57f 60f
3:04 1.6ft 6s 11 13 mph 1016.3mb 57f 60f